This is the latest recevied weather packets stored in our database for station/object DB0HRC-6. If no packets are shown the sender has not sent any weather packets the latest 10 day(s).
| Time | Temp. | Humidity | Pressure | Rain* | Wind** | Luminosity | Snow |
|---|---|---|---|---|---|---|---|
| 1778006713 | 15.56° C | 75% | 1001.9 hPa | 0 mm | - | - | - |
| 1778005816 | 15.56° C | 75% | 1001.8 hPa | 0 mm | - | - | - |
| 1778004913 | 16.11° C | 74% | 1001.8 hPa | 0 mm | - | - | - |
| 1778004013 | 16.67° C | 73% | 1002.1 hPa | 0 mm | - | - | - |
| 1778003112 | 16.67° C | 71% | 1002.4 hPa | 0 mm | - | - | - |
| 1778002213 | 16.67° C | 71% | 1002.2 hPa | 0 mm | - | - | - |
| 1778001314 | 17.22° C | 71% | 1002.3 hPa | 0 mm | - | - | - |
| 1778000413 | 17.22° C | 70% | 1002.5 hPa | 0 mm | - | - | - |
| 1777999513 | 17.78° C | 70% | 1002.4 hPa | 0 mm | - | - | - |
| 1777998613 | 17.78° C | 68% | 1002.7 hPa | 0 mm | - | - | - |
| 1777997713 | 17.78° C | 67% | 1002.6 hPa | 0 mm | - | - | - |
| 1777996813 | 17.78° C | 66% | 1002.6 hPa | 0 mm | - | - | - |
| 1777995913 | 17.78° C | 65% | 1002.8 hPa | 0 mm | - | - | - |
| 1777995013 | 17.78° C | 62% | 1003.1 hPa | 0 mm | - | - | - |
| 1777994113 | 17.78° C | 64% | 1003.1 hPa | 0 mm | - | - | - |
| 1777993213 | 17.78° C | 63% | 1003.5 hPa | 0 mm | - | - | - |
| 1777992313 | 17.78° C | 64% | 1003.4 hPa | 0 mm | - | - | - |
| 1777991413 | 17.78° C | 65% | 1003.5 hPa | 0 mm | - | - | - |
| 1777990514 | 18.33° C | 63% | 1003.6 hPa | 0 mm | - | - | - |
| 1777989613 | 18.33° C | 65% | 1003.8 hPa | 0 mm | - | - | - |
| 1777988712 | 18.33° C | 65% | 1004 hPa | 0 mm | - | - | - |
| 1777987813 | 17.78° C | 68% | 1003.9 hPa | 0 mm | - | - | - |
| 1777986913 | 18.33° C | 67% | 1004.2 hPa | 0 mm | - | - | - |
| 1777986013 | 17.78° C | 68% | 1004.4 hPa | 0 mm | - | - | - |
| 1777985114 | 17.78° C | 69% | 1004.3 hPa | 0 mm | - | - | - |
* Rain latest hour (hover to see other rain measurements)
** Current wind speed in m/s (hover to see current wind gust speed)